Torna al catalogo

COSMOS 2251 DEB

AttivoLEO
NORAD 34446·DEBRIS·🇷🇺 Russia

Lanciato Jun 16, 1993 da Plesetsk Cosmodrome

Loading…

Prossimi Passaggi (prossime 24 ore)

TLE

AggiornatoSource: Space-Track

Epoca: Sep 14, 2026, 08:16 UTC

1 34446U 93036SP  26257.34459928  .00000267  00000-0  75794-4 0  9999
2 34446  74.0386 260.3182 0051670 326.4458  33.3432 14.49589809926871

Traccia COSMOS 2251 DEB in tempo reale con AllMySat

Download on the App Store